Weather in Jiroft

Iran     28°39′54″N   57°44′17″E
temp.,
°C
wind,
m/s
gust,
m/s
humid.,
%
clouds,
%
prec.,
mm/h
press.,
hPa
HPBL,
m
9 may, sun
sun901:30+25se11345 0.0 100811
04:30+23se22391 0.0 100811
07:30+26n22330 0.0 1009191
10:30+30s32220 0.0 10081233
13:30+32s44190 0.0 10061904
16:30+34ssw66143 0.0 10033737
19:30+30s77207 0.0 10051003
22:30+26se46270 0.0 1008404
10 may, mon
mon1001:30+25n11310 0.0 100713
04:30+23sse22330 0.0 100712
07:30+25nnw22280 0.0 1009203
10:30+30wsw12130 0.0 10081039
13:30+33ssw54100 0.0 10062553
16:30+34ssw54110 0.0 10043036
19:30+27nne56300 0.0 1006278
22:30+29nnw33241 0.0 100640
11 may, tue
tue1101:30+27ene11274 0.0 100611
04:30+26nne22280 0.0 100614
07:30+28nne34230 0.0 1008352
10:30+32w11160 0.0 10092255
13:30+34sw331323 0.0 10073796
16:30+31nne12112124 0.1 1007920
19:30+26w2233100 0.3 1011403
22:30+28nnw232740 0.3 1009349
12 may, wed
wed1201:30+27nnw23280 0.0 100823
04:30+26nne33260 0.0 100822
07:30+28n34240 0.0 1009247
10:30+32nne56150 0.0 10082224
13:30+35ne46120 0.0 10063176
16:30+36nne33110 0.0 10043186
19:30+33nne79130 0.0 1004463
22:30+30nne44155 0.0 100697
13 may, thu
thu1301:30+28nne33185 0.0 100621
04:30+27nne222113 0.0 100616
07:30+28n23175 0.0 1007215
10:30+32sw21130 0.0 10071660
13:30+35s57121 0.0 10043388
16:30+35sw441411 0.0 10022398
19:30+29nne45235 0.0 1005407
22:30+29n33236 0.4 100677